Regional Weather Roundup
Issued by NWS

Home | Current Version | Previous Version | Text Only | Print | Product List | Glossary On
Versions: 1 2 3 4 5 6 7 8 9 10 11 12 13 14 15 16 17 18 19 20 21 22 23 24 25 26 27 28 29 30 31 32 33 34 35 36 37 38 39 40 41 42 43 44 45 46 47 48 49 50
000
ASUS44 KFWD 031203
RWRTX
NORTH TEXAS HOURLY WEATHER ROUNDUP
NATIONAL WEATHER SERVICE FORT WORTH TX
700 AM CDT TUE MAY 03 2016

NOTE: "FAIR" INDICATES FEW OR NO CLOUDS BELOW 12,000 FEET WITH NO
SIGNIFICANT WEATHER AND/OR OBSTRUCTIONS TO VISIBILITY.

TXZ118-119-031300-
DALLAS/FORT WORTH METROPLEX

CITY           SKY/WX    TMP DP  RH WIND       PRES   REMARKS
DFW AIRPORT    CLEAR     49  44  83 CALM      30.09R
6HR MIN TEMP:  48; 6HR MAX TEMP:  56;

DALLAS LOVE    PTCLDY    50  47  89 CALM      30.10R
6HR MIN TEMP:  50; 6HR MAX TEMP:  53;

FTW MEACHAM    CLEAR     50  48  93 NW3       30.10R
6HR MIN TEMP:  49; 6HR MAX TEMP:  53;

DAL-EXECUTIVE  PTCLDY    48  46  93 NW5       30.09R
6HR MIN TEMP:  48; 6HR MAX TEMP:  51;

FTW-ALLIANCE   CLEAR     45  44  97 CALM      30.10R
6HR MIN TEMP:  44; 6HR MAX TEMP:  48;

FTW-NAS-JRB    CLEAR     50  46  86 W3        30.11R
6HR MIN TEMP:  49; 6HR MAX TEMP:  54;

FTW-SPINKS     CLEAR     46  45  93 CALM      30.12R
ARLINGTON      CLEAR     49  45  86 CALM      30.10R
6HR MIN TEMP:  48; 6HR MAX TEMP:  51;

GRAND PRAIRIE  CLEAR     54  46  76 CALM      30.11S
ADDISON        CLEAR     50  46  87 CALM      30.10R
MESQUITE       CLEAR     48  45  87 NW5       30.10R
LANCASTER      CLEAR     46  43  91 CALM      30.10S
6HR MIN TEMP:  45; 6HR MAX TEMP:  51;

$$

TXZ091>094-102>105-117-120-121-131>134-031300-
NORTH CENTRAL TEXAS

CITY           SKY/WX    TMP DP  RH WIND       PRES   REMARKS
SHRMAN/DENISON CLEAR     42  39  89 CALM      30.11R
6HR MIN TEMP:  42; 6HR MAX TEMP:  47;

BRIDGEPORT     CLEAR     45  45 100 SW3       30.13R
6HR MIN TEMP:  43; 6HR MAX TEMP:  47;

DECATUR        CLEAR     49  48  94 W3        30.11R
6HR MIN TEMP:  49; 6HR MAX TEMP:  54;

DENTON         CLEAR     45  43  93 NW3       30.11R
6HR MIN TEMP:  43; 6HR MAX TEMP:  48;

MCKINNEY       CLEAR     46  45  96 N3        30.10R
6HR MIN TEMP:  45; 6HR MAX TEMP:  50;

ROCKWALL       CLEAR     50  48  94 CALM      30.09R
6HR MIN TEMP:  49; 6HR MAX TEMP:  52;

TERRELL        CLEAR     49  46  90 N3        30.10R
6HR MIN TEMP:  48; 6HR MAX TEMP:  54;

WAXAHACHIE     CLEAR     47  47 100 W3        30.11R
6HR MIN TEMP:  46; 6HR MAX TEMP:  50;

CLEBURNE       PTCLDY    46  46 100 CALM      30.12R
GRANBURY       CLEAR     45  43  93 CALM      30.12S
6HR MIN TEMP:  44; 6HR MAX TEMP:  49;

$$

TXZ083>090-098>101-113>116-127>130-139>142-154-155-031300-
WESTERN NORTH TEXAS

CITY           SKY/WX    TMP DP  RH WIND       PRES   REMARKS
WICHITA FALLS  CLEAR     48  44  86 SW8       30.10R
6HR MIN TEMP:  45; 6HR MAX TEMP:  51;

WF-KICKAPOO    CLEAR     51  46  82 N3        30.12R
6HR MIN TEMP:  49; 6HR MAX TEMP:  54;

VERNON         CLEAR     47  41  79 S3        30.11S
6HR MIN TEMP:  47; 6HR MAX TEMP:  70;

ABILENE        CLEAR     47  45  93 S7        30.11
6HR MIN TEMP:  46; 6HR MAX TEMP:  50;

ABILENE-DYESS  CLEAR     46  45  94 SE3       30.10R
6HR MIN TEMP:  46; 6HR MAX TEMP:  50;

MINERAL WELLS  CLEAR     45  44  97 CALM      30.10R
6HR MIN TEMP:  44; 6HR MAX TEMP:  51;

STEPHENVILLE   CLEAR     45  43  91 CALM      30.14R
6HR MIN TEMP:  45; 6HR MAX TEMP:  51;

COMANCHE       CLEAR     50  47  91 CALM      30.12R
6HR MIN TEMP:  49; 6HR MAX TEMP:  53;

BROWNWOOD      CLEAR     45  45 100 CALM      30.13R
COLEMAN        CLEAR     45  44  96 CALM      30.13R
6HR MIN TEMP:  45; 6HR MAX TEMP:  49;

$$

TXZ143>147-156>162-174-175-031300-
CENTRAL TEXAS

CITY           SKY/WX    TMP DP  RH WIND       PRES   REMARKS
WACO           CLEAR     48  45  89 CALM      30.10R
6HR MIN TEMP:  47; 6HR MAX TEMP:  53;

WACO-TSTC      CLEAR     48  46  93 CALM      30.11
WACO-MCGREGOR  CLEAR     48  46  93 CALM      30.11R
6HR MIN TEMP:  47; 6HR MAX TEMP:  53;

HILLSBORO      PTCLDY    45  45  99 CALM      30.11R FOG
6HR MIN TEMP:  43; 6HR MAX TEMP:  51;

CORSICANA      CLEAR     49  46  90 NW5       30.11R
6HR MIN TEMP:  49; 6HR MAX TEMP:  54;

MEXIA          CLEAR     49  47  94 CALM      30.09R
6HR MIN TEMP:  48; 6HR MAX TEMP:  54;

HEARNE         CLEAR     48  48  99 CALM      30.11R
6HR MIN TEMP:  48; 6HR MAX TEMP:  56;

TEMPLE         CLEAR     46  45  96 NW6       30.11R
6HR MIN TEMP:  46; 6HR MAX TEMP:  53;

KILLEEN        CLEAR     49  48  93 N5        30.11R
6HR MIN TEMP:  48; 6HR MAX TEMP:  52;

KILLEEN-SKYLRK CLEAR     48  47  96 NW6       30.11R
6HR MIN TEMP:  48; 6HR MAX TEMP:  53;

FORT HOOD      CLEAR     48  47  97 W3        30.09R
6HR MIN TEMP:  47; 6HR MAX TEMP:  52;

HAMILTON       CLEAR     50  49  95 CALM      30.12R
6HR MIN TEMP:  48; 6HR MAX TEMP:  54;

$$

TXZ095>097-106>112-122>126-135>138-148>153-164>167-031300-
EAST TEXAS

CITY           SKY/WX    TMP DP  RH WIND       PRES   REMARKS
PARIS          CLEAR     46  37  71 NW3       30.09R
6HR MIN TEMP:  46; 6HR MAX TEMP:  50;

MOUNT PLEASANT CLEAR     48  48 100 CALM      30.10R
6HR MIN TEMP:  46; 6HR MAX TEMP:  53;

GILMER         CLEAR     48  46  95 CALM      30.08R
6HR MIN TEMP:  48; 6HR MAX TEMP:  52;

MINEOLA        CLEAR     48  46  93 CALM      30.09R
TYLER          CLEAR     49  46  90 CALM      30.08R
6HR MIN TEMP:  49; 6HR MAX TEMP:  53;

LONGVIEW       PTCLDY    51  48  89 NW7       30.06R
6HR MIN TEMP:  48; 6HR MAX TEMP:  55;

ATHENS         CLEAR     45  45 100 CALM      30.08R
PALESTINE      CLEAR     47  47  99 CALM      30.09R
JACKSONVILLE   CLEAR     49  47  93 CALM      30.08R
CENTER         FAIR      53  51  95 NW3       30.05R
6HR MIN TEMP:  53; 6HR MAX TEMP:  59;

NACOGDOCHES    PTCLDY    48  48 100 N6        30.05S
6HR MIN TEMP:  48; 6HR MAX TEMP:  55;

LUFKIN         PTCLDY    51  49  92 NW3       30.05R
6HR MIN TEMP:  51; 6HR MAX TEMP:  58;

$$

SUPPLEMENTAL OBSERVATIONS (CENTRAL)

CITY           SKY/WX    TMP DP  RH WIND       PRES   REMARKS
$$

SUPPLEMENTAL OBSERVATIONS (WEST)

CITY           SKY/WX    TMP DP  RH WIND       PRES   REMARKS
$$

SUPPLEMENTAL OBSERVATIONS (EAST)

CITY           SKY/WX    TMP DP  RH WIND       PRES   REMARKS
$$

SUPPLEMENTAL OBSERVATIONS ARE A COLLECTION OF AUTOMATED INSTRUMENTS
THAT ARE MAINTAINED BY A VARIETY OF FEDERAL AND STATE AGENCIES.
CERTAIN ELEMENTS...SUCH AS HUMIDITY VALUES AND SUSTAINED WIND
SPEEDS...MAY BE APPROXIMATED.




USA.gov is the U.S. government's official web portal to all federal, state and local government web resources and services.